Weather in Shelkovskaya

Russia / Chechen Republic     43°30′28″N   46°20′09″E
temp.,
°C
wind,
m/s
gust,
m/s
humid.,
%
clouds,
%
prec.,
mm/h
press.,
hPa
HPBL,
m
8 august, mon
mon800:00+22ese2266100 0.0 101030
03:00+21wsw2273100 0.0 101021
06:00+22w4668100 0.5 1011193
09:00+25wsw5653100 0.8 1012520
12:00+26ene0252100 0.3 1013679
15:00+29nne773967 0.4 10131365
18:00+25ene475087 0.2 1014332
21:00+24sse236099 0.2 101463
9 august, tue
tue900:00+22e00640 0.0 101415
03:00+20sw11720 0.0 101413
06:00+21w11672 0.0 101545
09:00+28ene33410 0.0 10151011
12:00+33e67240 0.0 10132573
15:00+33e87220 0.0 10132843
18:00+30ese67260 0.0 10131686
21:00+23e49470 0.0 1013137
10 august, wed
wed1000:00+21e36640 0.0 1012108
03:00+19e39740 0.0 1012172
06:00+21e311660 0.0 1012313
09:00+31e811250 0.0 10111623
12:00+35e1112200 0.0 10092061
15:00+34e1112230 0.0 10081829
18:00+29e1114360 0.0 10081022
21:00+25e917520 0.0 1008622
11 august, thu
thu1100:00+24ese614620 0.0 1008504
03:00+23ese49700 0.0 1007309
06:00+24ese38620 0.0 1007338
09:00+31se46320 0.0 10071010
12:00+38ese99233 0.0 10052147
15:00+37e1110290 0.0 10051654
18:00+32e1115432 0.0 1006800
21:00+27ese8146217 0.3 1008449
12 august, fri
fri1200:00+25ese715742 0.5 1009395
03:00+24ese613690 0.6 1009397
06:00+25ese512640 0.0 1010501
09:00+33se57350 0.0 10101177
12:00+38e109160 0.0 10092182
15:00+37e1213190 0.0 10081738
18:00+31e1116330 0.0 1009992
21:00+28e1018400 0.0 1010648